O3B FM14 (43233 NORAD) Tracking and Keplerian Element Data

This shows tracking and keplerian element data for the satellite.

Feedback or suggestion? Click here.




ElementValue
Catalog43233
NameO3B FM14
Epoch Orbit11381
Epoch Day156.79200751
Epoch Year2024
RAAN8.5973
Inclination0.0426
Eccentricity0.0002861
Argument of Perigee64.8602
Mean Anonmoly286.5741
Mean Motion5.00114816
Decay Rate-2E-07
L11 43233U 18024C 24156.79200751 -.00000020 00000+0 00000+0 0 9990
L22 43233 0.0426 8.5973 0002861 64.8602 286.5741 5.00114816113817



Live tracking and technical data element details for O3B FM14 (NORAD 43233). O3B FM14 can be tracked NOW for your location showing map with azimuth and elevation plus other details from your city location.







IsCatalogInMostPopularTable: catalog: 43233, numindb: 643
Update: records affected: 1



GetName: 43233 O3B FM14

Hit Count: updated at: Mon, 17 Jun 2024 23:19:33 GMT